User: anonymous   Login
Location: Newark
(49.8969°N, 3.3422°E)
Time: 19:47:33
(UTC+00:00)
Language:

Altair - Orbit

View from above orbital plane
View from above orbital plane
View from above satellite
View from above satellite

Ground track
Ground track

The orbit data is extracted from the following two-line orbital elements,

1    50U 60009B   20024.58186320 -.00000057 +00000-0 +25578-3 0  9994
2    50 047.2286 210.9023 0113320 253.9013 104.9275 12.20109006652536
Epoch (UTC): 24 January 2020 13:57:52
Eccentricity: 0.0113320
inclination: 47.2286°
perigee height: 1502 km
apogee height: 1682 km
right ascension of ascending node: 210.9023°
argument of perigee: 253.9013°
revolutions per day: 12.20109006
mean anomaly at epoch: 104.9275°
orbit number at epoch: 65253

The dashed part of the orbit path shows where the satellite is in the earth's shadow,  

DLR